Weather Roundup
Issued by NWS Springfield, MO

Home | Current Version | Previous Version | Text Only | Print | Product List | Glossary On
Versions: 1 2 3 4 5 6 7 8 9 10 11 12 13 14 15 16 17 18 19 20 21 22 23 24 25 26 27 28 29 30 31 32 33 34 35 36 37 38 39 40 41 42 43 44 45 46 47 48 49 50
000
NZUS99 KSGF 201207
HRRSGF

HOURLY WEATHER
NATIONAL WEATHER SERVICE SPRINGFIELD MO
700 AM CDT SAT SEP 20 2014

......SGF CWA......

CITY           SKY/WX    TMP DP  RH WIND       PRES   REMARKS
SPRINGFIELD    CLEAR     65  63  93 S8        30.03R
6HR MIN TEMP:  63; 6HR MAX TEMP:  67;

JOPLIN         CLEAR     67  66  97 S8        30.02R FOG
6HR MIN TEMP:  66; 6HR MAX TEMP:  69;

WEST PLAINS    PTCLDY    59  57  93 CALM      30.08R FOG
6HR MIN TEMP:  59; 6HR MAX TEMP:  65;

ROLLA          CLEAR     64  62  93 S9        30.02R
6HR MIN TEMP:  63; 6HR MAX TEMP:  66;

OSAGE BEACH    CLEAR     63  59  88 S3        30.01R
BRANSON        PTCLDY    63  61  94 CALM      30.07R FOG

......SURROUNDING SGF CWA......

CITY           SKY/WX    TMP DP  RH WIND       PRES   REMARKS
CHANUTE        PTCLDY    67  66  97 S9        29.98F FOG
PARSONS        FOG       67  67 100 S5        30.00S VSB 1/4
EMPORIA        CLEAR     68  66  93 S7        29.96R
GROVE OK       FOG       64  64 100 CALM      30.03S VSB 1
ROGERS AR      CLEAR     64  63  96 SE3       30.07R
SILOAM SPRINGS MOCLDY    64  61  88 CALM      30.06R
HARRISON AR    CLEAR     62  62 100 S5        30.06R FOG
NEAR YELLVILLE CLOUDY    61  55  82 CALM      30.06R VSB<1/4

......KANSAS AND MISSOURI......

CITY           SKY/WX    TMP DP  RH WIND       PRES   REMARKS
KANSAS CTY INT PTCLDY    67  66  97 SW7       29.97R FOG
DOWNTOWN KC    CLEAR     71  67  87 SW7       29.95R
COLUMBIA       CLEAR     62  61  96 S5        30.00R FOG
SEDALIA        CLEAR     67  64  90 S9        30.00R FOG
ST JOSEPH      PTCLDY    66  65  96 SW5       29.96R FOG
ST LOUIS       MOCLDY    65  60  84 S3        30.01R
SPIRIT OF STL  CLEAR     55  55 100 CALM      30.00R
KIRKSVILLE     CLOUDY    64  63  96 N6        30.00R FOG
WICHITA        PTCLDY    67  64  90 S5        29.96F FOG
TOPEKA         PTCLDY    69  68  96 CALM      29.95R FOG
OLATHE         CLEAR     68  66  93 SW7       29.96R FOG

......TENNESSEE......

CITY           SKY/WX    TMP DP  RH WIND       PRES   REMARKS
MEMPHIS        PTCLDY    72  65  78 S5        30.05R
NASHVILLE      PTCLDY    67  63  87 S6        30.12R

......ARKANSAS.......

CITY           SKY/WX    TMP DP  RH WIND       PRES   REMARKS
FAYETTEVILLE   MOCLDY    67  66  97 S5        30.06R
FT SMITH       PTCLDY    68  66  93 NE5       30.02R FOG
LITTLE ROCK    CLEAR     68  65  90 CALM      30.04R

......OKLAHOMA.......

CITY           SKY/WX    TMP DP  RH WIND       PRES   REMARKS
TULSA          PTCLDY    69  68  96 SE5       29.99R FOG
PONCA CITY     CLEAR     70  67  90 S5        29.98S
MCALESTER      MOCLDY    71  69  93 CALM      30.01R
OKLAHOMA CITY  MOCLDY    69  67  93 S5        29.99S FOG

......IOWA............

CITY           SKY/WX    TMP DP  RH WIND       PRES   REMARKS
DES MOINES     TSTM      69  64  84 SW23G32   29.87F
QUAD CITIES    LGT RAIN  63  60  90 SW6       29.90F FOG

......ILLINOIS........

CITY           SKY/WX    TMP DP  RH WIND       PRES   REMARKS
QUINCY         CLEAR     61  59  93 S7        29.98R FOG
CHICAGO        MOCLDY    63  54  72 SW14      29.93S



USA.gov is the U.S. government's official web portal to all federal, state and local government web resources and services.